Location: Boiro
(42.6475°N, 8.8834°W)
Time: 23:16:10
(UTC+01:00)

Tiros 1 - Pass Details

Date: 09 December 2021
Orbit: 629 x 664 km, 48.4° (Epoch: 18 January)

Event Time Altitude Azimuth Distance (km) Brightness Sun altitude
Rises 20:10:43 0° 274° (W) 2,919 11.8 -22.9°
Reaches altitude 10° 20:13:08 10° 281° (W) 2,015 10.6 -23.3°
Maximum altitude 20:17:33 42° 353° (N) 906 7.8 -24.1°
Enters shadow 20:17:37 42° 356° (N) 907 7.8 -24.1°
Drops below altitude 10° 20:22:01 10° 65° (ENE) 2,035 - -24.9°
Sets 20:24:28 0° 72° (ENE) 2,951 - -25.4°
